sat.trackr.live / text

‹ back to catalog

STARLINK-3332

NORAD 50825 · 2022-001Y

PAYLOAD ACTIVE UNKNOWN

§ Identity

Operator
Country
US
Launch date
2022-01-06
Launch site
AFETR
Launch vehicle
Mass (kg)
RCS (m²)

Purposes: comms

External: N2YO · Heavens-Above · Gunter

§ Orbital elements

Epoch: 2026-05-24T12:36:45.579456Z

Period
95.44 min
Inclination
53.2147°
Eccentricity
0.0001171
Mean motion
15.08840779 rev/d
Perigee alt
538.9 km
Apogee alt
540.6 km
Semi-major
6,917.9 km
B*
1.7973e-5
RAAN
188.6798°
Arg perigee
85.8958°
Mean anomaly
274.2168°
Rev number
24,185

§ Raw data

STARLINK-33321 50825U 22001Y   26144.52552754 -.00000002  00000+0  17973-4 0  99902 50825  53.2147 188.6798 0001171  85.8958 274.2168 15.08840779241853

JSON: /api/v1/satellites/50825 · /tle

For live sub-satellite position, see the globe view (requires WebGL).

§ Visibility from observer

Set your observer location to see the next 7 days of passes ≥ 10°. The values pass through the URL so the page stays shareable.

No JS? Fill the form by hand. The geolocation button needs JavaScript.